{"data":{"norad_id":55268,"intl_designator":"2023-009A","name":"GPS BIII-6  (PRN 28)","alt_names":[],"object_type":"PAYLOAD","status":"ACTIVE","operator":null,"country":"US","launch_date":"2023-01-18","launch_site_code":"AFETR","launch_vehicle":null,"mission":null,"orbit_class":"UNKNOWN","rcs_meters":null,"size_class":null,"mass_kg":null,"dimensions":null,"purposes":["nav"],"wikipedia_slug":null,"has_3d_model":false,"image_url":null,"decayed_at":null,"tle_current":{"epoch":"2026-09-18T16:59:59.999712Z","epoch_age_seconds":169323,"freshness":"FRESH","line1":"1 55268U 23009A   26261.70833333 -.00000021  00000+0  00000+0 0  9999","line2":"2 55268  55.1281 144.8410 0005669 331.1007  44.4314  2.00565480 27125","mean_motion":2.0056548,"eccentricity":0.0005669,"inclination_deg":55.1281,"raan_deg":144.841,"arg_perigee_deg":331.1007,"mean_anomaly_deg":44.4314,"bstar":0,"rev_number":2712,"period_min":717.97001158923,"perigee_km":20166.988227575,"apogee_km":20197.102162148,"semimajor_km":26560.182194861,"source":"CELESTRAK","updated_at":"2026-09-20T09:00:46.121021Z"}}}